Time,TemperatureF,DewpointF,PressureIn,WindDirection,WindDirectionDegrees,WindSpeedMPH,WindSpeedGustMPH,Humidity,HourlyPrecipIn,Conditions,Clouds,dailyrainin,SoftwareType,DateUTC
2013-01-17 00:00:00,23.8,16.1,30.40,NW,321,1.0,4.0,72,0.00,,,-99.99,Weather View 32 v60,2013-01-17 08:00:00,
2013-01-17 00:05:00,23.5,16.1,30.40,NW,321,0.0,4.0,73,0.00,,,-99.99,Weather View 32 v60,2013-01-17 08:05:00,
2013-01-17 00:10:00,23.3,15.9,30.40,NW,321,3.0,4.0,73,0.00,,,-99.99,Weather View 32 v60,2013-01-17 08:10:00,
2013-01-17 00:15:00,23.6,15.6,30.40,NW,319,3.0,4.0,71,0.00,,,-99.99,Weather View 32 v60,2013-01-17 08:15:00,
2013-01-17 00:20:00,23.8,15.4,30.40,NW,323,2.0,4.0,70,0.00,,,-99.99,Weather View 32 v60,2013-01-17 08:20:00,
2013-01-17 00:25:00,23.9,14.9,30.40,NNW,340,4.0,5.0,68,0.00,,,-99.99,Weather View 32 v60,2013-01-17 08:25:00,
2013-01-17 00:30:00,23.6,14.9,30.40,NNW,347,2.0,5.0,69,0.00,,,-99.99,Weather View 32 v60,2013-01-17 08:30:00,
2013-01-17 00:35:00,23.4,14.4,30.41,NW,326,2.0,5.0,68,0.00,,,-99.99,Weather View 32 v60,2013-01-17 08:35:00,
2013-01-17 00:40:00,23.6,14.9,30.41,NW,326,3.0,5.0,69,0.00,,,-99.99,Weather View 32 v60,2013-01-17 08:40:00,
2013-01-17 00:45:00,23.5,14.5,30.41,NW,326,2.0,5.0,68,0.00,,,-99.99,Weather View 32 v60,2013-01-17 08:45:00,
2013-01-17 00:50:00,23.4,14.4,30.41,NW,325,2.0,5.0,68,0.00,,,-99.99,Weather View 32 v60,2013-01-17 08:50:00,
2013-01-17 00:55:00,23.1,13.8,30.41,NW,326,2.0,5.0,67,0.00,,,-99.99,Weather View 32 v60,2013-01-17 08:55:00,
2013-01-17 01:00:00,20.6,10.4,30.42,North,349,3.0,5.0,64,0.00,,,-99.99,Weather View 32 v60,2013-01-17 09:00:00,
2013-01-17 01:05:00,20.6,10.4,30.42,North,349,0.0,5.0,64,0.00,,,-99.99,Weather View 32 v60,2013-01-17 09:05:00,
2013-01-17 01:10:00,20.5,10.3,30.42,North,349,3.0,5.0,64,0.00,,,-99.99,Weather View 32 v60,2013-01-17 09:10:00,
2013-01-17 01:15:00,20.5,10.3,30.42,North,349,0.0,5.0,64,0.00,,,-99.99,Weather View 32 v60,2013-01-17 09:15:00,
2013-01-17 01:20:00,20.5,9.9,30.42,North,349,0.0,5.0,63,0.00,,,-99.99,Weather View 32 v60,2013-01-17 09:20:00,
2013-01-17 01:25:00,20.3,10.1,30.42,North,349,0.0,5.0,64,0.00,,,-99.99,Weather View 32 v60,2013-01-17 09:25:00,
2013-01-17 01:30:00,20.2,10.0,30.42,North,349,0.0,4.0,64,0.00,,,-99.99,Weather View 32 v60,2013-01-17 09:30:00,
2013-01-17 01:35:00,21.8,13.2,30.44,NNW,329,2.0,4.0,69,0.00,,,-99.99,Weather View 32 v60,2013-01-17 09:35:00,
2013-01-17 01:40:00,22.0,13.4,30.44,NNW,329,3.0,4.0,69,0.00,,,-99.99,Weather View 32 v60,2013-01-17 09:40:00,
2013-01-17 01:45:00,22.0,13.7,30.44,NNW,330,2.0,4.0,70,0.00,,,-99.99,Weather View 32 v60,2013-01-17 09:45:00,
2013-01-17 01:50:00,22.0,13.7,30.42,NNW,330,0.0,4.0,70,0.00,,,-99.99,Weather View 32 v60,2013-01-17 09:50:00,
2013-01-17 01:55:00,21.8,13.5,30.42,NNW,330,3.0,4.0,70,0.00,,,-99.99,Weather View 32 v60,2013-01-17 09:55:00,
2013-01-17 02:00:00,21.7,13.4,30.42,NNW,330,2.0,4.0,70,0.00,,,-99.99,Weather View 32 v60,2013-01-17 10:00:00,
2013-01-17 02:05:00,21.5,13.6,30.42,NNW,329,3.0,4.0,71,0.00,,,-99.99,Weather View 32 v60,2013-01-17 10:05:00,
2013-01-17 02:10:00,21.5,13.2,30.42,NNW,328,2.0,4.0,70,0.00,,,-99.99,Weather View 32 v60,2013-01-17 10:10:00,
2013-01-17 02:15:00,21.8,13.5,30.42,NNW,328,3.0,4.0,70,0.00,,,-99.99,Weather View 32 v60,2013-01-17 10:15:00,
2013-01-17 02:20:00,21.8,13.5,30.42,NNW,328,2.0,4.0,70,0.00,,,-99.99,Weather View 32 v60,2013-01-17 10:20:00,
2013-01-17 02:25:00,21.8,13.8,30.42,NNW,329,2.0,4.0,71,0.00,,,-99.99,Weather View 32 v60,2013-01-17 10:25:00,
2013-01-17 02:30:00,21.8,13.5,30.42,NNW,329,3.0,4.0,70,0.00,,,-99.99,Weather View 32 v60,2013-01-17 10:30:00,
2013-01-17 02:35:00,21.7,13.8,30.47,NNW,330,1.0,4.0,71,0.00,,,-99.99,Weather View 32 v60,2013-01-17 10:35:00,
2013-01-17 02:55:00,21.5,13.9,30.47,NNW,330,1.0,5.0,72,0.00,,,-99.99,Weather View 32 v60,2013-01-17 10:55:00,
2013-01-17 03:00:00,19.1,11.6,30.47,North,349,0.0,5.0,72,0.00,,,-99.99,Weather View 32 v60,2013-01-17 11:00:00,
2013-01-17 03:05:00,19.1,9.9,30.49,North,349,0.0,5.0,67,0.00,,,-99.99,Weather View 32 v60,2013-01-17 11:05:00,
2013-01-17 03:20:00,21.4,13.5,30.46,NNW,330,3.0,5.0,71,0.00,,,-99.99,Weather View 32 v60,2013-01-17 11:20:00,
2013-01-17 03:25:00,21.1,13.2,30.46,NNW,330,1.0,5.0,71,0.00,,,-99.99,Weather View 32 v60,2013-01-17 11:25:00,
2013-01-17 03:30:00,21.1,12.9,30.46,NNW,330,3.0,5.0,70,0.00,,,-99.99,Weather View 32 v60,2013-01-17 11:30:00,
2013-01-17 03:35:00,21.3,13.0,30.52,NNW,330,2.0,5.0,70,0.00,,,-99.99,Weather View 32 v60,2013-01-17 11:35:00,
2013-01-17 03:40:00,21.1,12.9,30.52,NNW,330,2.0,5.0,70,0.00,,,-99.99,Weather View 32 v60,2013-01-17 11:40:00,
2013-01-17 03:45:00,20.9,13.0,30.52,NNW,330,0.0,5.0,71,0.00,,,-99.99,Weather View 32 v60,2013-01-17 11:45:00,
2013-01-17 03:50:00,20.9,13.0,30.52,NNW,330,1.0,5.0,71,0.00,,,-99.99,Weather View 32 v60,2013-01-17 11:50:00,
2013-01-17 03:55:00,20.7,12.8,30.52,NNW,330,1.0,5.0,71,0.00,,,-99.99,Weather View 32 v60,2013-01-17 11:55:00,
2013-01-17 04:10:00,20.8,12.6,30.52,NNW,330,2.0,5.0,70,0.00,,,-99.99,Weather View 32 v60,2013-01-17 12:10:00,
2013-01-17 04:15:00,21.0,12.8,30.52,NNW,330,1.0,5.0,70,0.00,,,-99.99,Weather View 32 v60,2013-01-17 12:15:00,
2013-01-17 04:20:00,20.7,12.5,30.52,NNW,330,3.0,5.0,70,0.00,,,-99.99,Weather View 32 v60,2013-01-17 12:20:00,
2013-01-17 04:25:00,21.5,13.6,30.47,NNW,330,2.0,4.0,71,0.00,,,-99.99,Weather View 32 v60,2013-01-17 12:25:00,
2013-01-17 04:30:00,21.3,13.7,30.47,NNW,330,1.0,4.0,72,0.00,,,-99.99,Weather View 32 v60,2013-01-17 12:30:00,
2013-01-17 04:35:00,21.4,13.8,30.47,NNW,330,3.0,4.0,72,0.00,,,-99.99,Weather View 32 v60,2013-01-17 12:35:00,
2013-01-17 04:45:00,17.8,8.4,30.54,North,349,0.0,4.0,66,0.00,,,-99.99,Weather View 32 v60,2013-01-17 12:45:00,
2013-01-17 04:55:00,18.9,9.8,30.49,North,349,0.0,5.0,67,0.00,,,-99.99,Weather View 32 v60,2013-01-17 12:55:00,
2013-01-17 05:00:00,21.6,13.7,30.49,NNW,330,1.0,5.0,71,0.00,,,-99.99,Weather View 32 v60,2013-01-17 13:00:00,
2013-01-17 05:05:00,19.7,12.1,30.53,NNW,329,1.0,4.0,72,0.00,,,-99.99,Weather View 32 v60,2013-01-17 13:05:00,
2013-01-17 05:15:00,19.8,12.2,30.53,NNW,330,4.0,4.0,72,0.00,,,-99.99,Weather View 32 v60,2013-01-17 13:15:00,
2013-01-17 05:20:00,17.7,10.2,30.54,North,349,2.0,4.0,72,0.00,,,-99.99,Weather View 32 v60,2013-01-17 13:20:00,
2013-01-17 05:25:00,17.7,8.3,30.54,North,349,0.0,4.0,66,0.00,,,-99.99,Weather View 32 v60,2013-01-17 13:25:00,
2013-01-17 05:30:00,17.7,8.3,30.54,North,349,3.0,4.0,66,0.00,,,-99.99,Weather View 32 v60,2013-01-17 13:30:00,
2013-01-17 05:40:00,18.0,8.9,30.57,North,349,2.0,4.0,67,0.00,,,-99.99,Weather View 32 v60,2013-01-17 13:40:00,
2013-01-17 05:45:00,18.1,8.7,30.57,North,349,0.0,4.0,66,0.00,,,-99.99,Weather View 32 v60,2013-01-17 13:45:00,
2013-01-17 05:46:00,20.7,12.8,30.52,NNW,330,1.0,5.0,71,0.00,,,-99.99,Weather View 32 v60,2013-01-17 13:46:00,
2013-01-17 05:55:00,18.8,9.0,30.57,North,349,0.0,4.0,65,0.00,,,-99.99,Weather View 32 v60,2013-01-17 13:55:00,
2013-01-17 06:00:00,19.2,9.4,30.57,North,349,0.0,4.0,65,0.00,,,-99.99,Weather View 32 v60,2013-01-17 14:00:00,
2013-01-17 06:05:00,19.5,9.3,30.57,North,349,2.0,4.0,64,0.00,,,-99.99,Weather View 32 v60,2013-01-17 14:05:00,
2013-01-17 06:10:00,20.3,12.1,30.52,NNW,329,2.0,5.0,70,0.00,,,-99.99,Weather View 32 v60,2013-01-17 14:10:00,
2013-01-17 06:20:00,20.6,10.0,30.57,North,349,0.0,3.0,63,0.00,,,-99.99,Weather View 32 v60,2013-01-17 14:20:00,
2013-01-17 06:25:00,17.8,8.7,30.54,North,349,0.0,4.0,67,0.00,,,-99.99,Weather View 32 v60,2013-01-17 14:25:00,
2013-01-17 06:30:00,22.1,10.7,30.57,North,349,0.0,3.0,61,0.00,,,-99.99,Weather View 32 v60,2013-01-17 14:30:00,
2013-01-17 06:35:00,17.7,8.3,30.55,North,349,0.0,4.0,66,0.00,,,-99.99,Weather View 32 v60,2013-01-17 14:35:00,
2013-01-17 06:45:00,19.7,12.1,30.55,NNW,330,3.0,4.0,72,0.00,,,-99.99,Weather View 32 v60,2013-01-17 14:45:00,
2013-01-17 06:55:00,19.7,12.1,30.53,NNW,329,2.0,4.0,72,0.00,,,-99.99,Weather View 32 v60,2013-01-17 14:55:00,
2013-01-17 07:05:00,27.1,16.5,30.51,NNW,331,1.0,3.0,64,0.00,,,-99.99,Weather View 32 v60,2013-01-17 15:05:00,
2013-01-17 07:10:00,27.9,17.7,30.51,NNW,331,0.0,3.0,65,0.00,,,-99.99,Weather View 32 v60,2013-01-17 15:10:00,
2013-01-17 07:15:00,28.7,17.3,30.51,NNW,331,0.0,3.0,62,0.00,,,-99.99,Weather View 32 v60,2013-01-17 15:15:00,
2013-01-17 07:20:00,17.7,8.3,30.57,North,349,1.0,4.0,66,0.00,,,-99.99,Weather View 32 v60,2013-01-17 15:20:00,
2013-01-17 07:25:00,26.9,14.1,30.48,North,349,0.0,3.0,58,0.00,,,-99.99,Weather View 32 v60,2013-01-17 15:25:00,
2013-01-17 07:30:00,27.2,14.0,30.48,North,349,0.0,3.0,57,0.00,,,-99.99,Weather View 32 v60,2013-01-17 15:30:00,
2013-01-17 07:35:00,18.4,8.9,30.57,North,349,1.0,4.0,66,0.00,,,-99.99,Weather View 32 v60,2013-01-17 15:35:00,
2013-01-17 07:45:00,32.3,18.8,30.51,NNW,331,0.0,3.0,57,0.00,,,-99.99,Weather View 32 v60,2013-01-17 15:45:00,
2013-01-17 07:50:00,32.6,19.8,30.48,NW,322,0.0,3.0,59,0.00,,,-99.99,Weather View 32 v60,2013-01-17 15:50:00,
2013-01-17 07:55:00,32.6,19.0,30.48,NW,322,2.0,3.0,57,0.00,,,-99.99,Weather View 32 v60,2013-01-17 15:55:00,
2013-01-17 08:00:00,20.2,9.6,30.57,North,349,0.0,4.0,63,0.00,,,-99.99,Weather View 32 v60,2013-01-17 16:00:00,
2013-01-17 08:05:00,33.2,17.0,30.47,NW,319,0.0,3.0,51,0.00,,,-99.99,Weather View 32 v60,2013-01-17 16:05:00,
2013-01-17 08:10:00,34.1,19.2,30.47,NW,317,0.0,3.0,54,0.00,,,-99.99,Weather View 32 v60,2013-01-17 16:10:00,
2013-01-17 08:15:00,35.7,20.7,30.47,NW,317,0.0,3.0,54,0.00,,,-99.99,Weather View 32 v60,2013-01-17 16:15:00,
2013-01-17 08:20:00,36.7,21.2,30.45,NW,317,0.0,3.0,53,0.00,,,-99.99,Weather View 32 v60,2013-01-17 16:20:00,
2013-01-17 08:25:00,23.6,12.1,30.54,North,349,0.0,3.0,61,0.00,,,-99.99,Weather View 32 v60,2013-01-17 16:25:00,
2013-01-17 08:30:00,37.9,20.4,30.45,NW,317,0.0,3.0,49,0.00,,,-99.99,Weather View 32 v60,2013-01-17 16:30:00,
2013-01-17 08:35:00,25.0,15.2,30.51,NNW,331,2.0,3.0,66,0.00,,,-99.99,Weather View 32 v60,2013-01-17 16:35:00,
2013-01-17 08:40:00,35.8,14.4,30.43,North,349,0.0,3.0,41,0.00,,,-99.99,Weather View 32 v60,2013-01-17 16:40:00,
2013-01-17 08:45:00,26.3,16.5,30.51,NNW,331,2.0,3.0,66,0.00,,,-99.99,Weather View 32 v60,2013-01-17 16:45:00,
2013-01-17 08:50:00,36.5,19.1,30.45,NW,316,0.0,3.0,49,0.00,,,-99.99,Weather View 32 v60,2013-01-17 16:50:00,
2013-01-17 08:55:00,36.7,18.3,30.45,NW,316,0.0,3.0,47,0.00,,,-99.99,Weather View 32 v60,2013-01-17 16:55:00,
2013-01-17 09:00:00,37.6,20.1,30.45,NW,316,0.0,3.0,49,0.00,,,-99.99,Weather View 32 v60,2013-01-17 17:00:00,
2013-01-17 09:10:00,38.6,14.5,30.42,North,349,0.0,2.0,37,0.00,,,-99.99,Weather View 32 v60,2013-01-17 17:10:00,
2013-01-17 09:25:00,31.7,18.2,30.51,NNW,331,0.0,3.0,57,0.00,,,-99.99,Weather View 32 v60,2013-01-17 17:25:00,
2013-01-17 09:30:00,40.3,15.4,30.40,North,349,0.0,2.0,36,0.00,,,-99.99,Weather View 32 v60,2013-01-17 17:30:00,
2013-01-17 09:35:00,41.1,15.5,30.41,North,349,0.0,2.0,35,0.00,,,-99.99,Weather View 32 v60,2013-01-17 17:35:00,
2013-01-17 09:40:00,41.5,20.1,30.41,NW,317,0.0,2.0,42,0.00,,,-99.99,Weather View 32 v60,2013-01-17 17:40:00,
2013-01-17 09:45:00,41.5,20.1,30.41,NW,317,0.0,2.0,42,0.00,,,-99.99,Weather View 32 v60,2013-01-17 17:45:00,
2013-01-17 09:50:00,41.5,20.1,30.38,NW,317,0.0,1.0,42,0.00,,,-99.99,Weather View 32 v60,2013-01-17 17:50:00,
2013-01-17 09:55:00,41.7,20.8,30.38,NW,317,0.0,1.0,43,0.00,,,-99.99,Weather View 32 v60,2013-01-17 17:55:00,
2013-01-17 10:00:00,42.3,21.4,30.38,NW,317,0.0,1.0,43,0.00,,,-99.99,Weather View 32 v60,2013-01-17 18:00:00,
2013-01-17 10:05:00,42.8,20.7,30.37,NW,315,1.0,1.0,41,0.00,,,-99.99,Weather View 32 v60,2013-01-17 18:05:00,
2013-01-17 10:10:00,42.5,17.4,30.37,North,349,0.0,2.0,36,0.00,,,-99.99,Weather View 32 v60,2013-01-17 18:10:00,
2013-01-17 10:15:00,42.1,17.0,30.37,North,349,0.0,2.0,36,0.00,,,-99.99,Weather View 32 v60,2013-01-17 18:15:00,
2013-01-17 10:20:00,42.1,18.3,30.36,North,0,0.0,3.0,38,0.00,,,-99.99,Weather View 32 v60,2013-01-17 18:20:00,
2013-01-17 10:25:00,42.5,22.6,30.36,WNW,297,0.0,3.0,45,0.00,,,-99.99,Weather View 32 v60,2013-01-17 18:25:00,
2013-01-17 10:30:00,42.0,22.7,30.36,WNW,295,0.0,3.0,46,0.00,,,-99.99,Weather View 32 v60,2013-01-17 18:30:00,
2013-01-17 10:40:00,42.0,23.7,30.38,WNW,295,0.0,3.0,48,0.00,,,-99.99,Weather View 32 v60,2013-01-17 18:40:00,
2013-01-17 10:45:00,41.5,21.7,30.38,SSW,192,1.0,3.0,45,0.00,,,-99.99,Weather View 32 v60,2013-01-17 18:45:00,
2013-01-17 10:50:00,38.8,19.8,30.42,NW,316,0.0,2.0,46,0.00,,,-99.99,Weather View 32 v60,2013-01-17 18:50:00,
2013-01-17 11:00:00,39.6,18.4,30.42,NW,315,0.0,2.0,42,0.00,,,-99.99,Weather View 32 v60,2013-01-17 19:00:00,
2013-01-17 11:05:00,40.0,18.7,30.40,NW,315,0.0,2.0,42,0.00,,,-99.99,Weather View 32 v60,2013-01-17 19:05:00,
2013-01-17 11:10:00,41.9,23.1,30.38,North,0,0.0,4.0,47,0.00,,,-99.99,Weather View 32 v60,2013-01-17 19:10:00,
2013-01-17 11:20:00,41.5,18.4,30.36,North,0,0.0,4.0,39,0.00,,,-99.99,Weather View 32 v60,2013-01-17 19:20:00,
2013-01-17 11:25:00,41.7,21.9,30.36,South,169,0.0,4.0,45,0.00,,,-99.99,Weather View 32 v60,2013-01-17 19:25:00,
2013-01-17 11:30:00,41.9,22.6,30.36,SSE,168,0.0,4.0,46,0.00,,,-99.99,Weather View 32 v60,2013-01-17 19:30:00,
2013-01-17 11:35:00,41.8,23.5,30.33,SSE,162,0.0,4.0,48,0.00,,,-99.99,Weather View 32 v60,2013-01-17 19:35:00,
2013-01-17 11:40:00,41.7,23.9,30.33,SSE,162,1.0,4.0,49,0.00,,,-99.99,Weather View 32 v60,2013-01-17 19:40:00,
2013-01-17 11:50:00,42.0,23.7,30.33,SSE,162,2.0,4.0,48,0.00,,,-99.99,Weather View 32 v60,2013-01-17 19:50:00,
2013-01-17 11:55:00,43.1,20.4,30.33,North,0,0.0,4.0,40,0.00,,,-99.99,Weather View 32 v60,2013-01-17 19:55:00,
2013-01-17 12:05:00,42.3,20.8,30.32,North,0,0.0,4.0,42,0.00,,,-99.99,Weather View 32 v60,2013-01-17 20:05:00,
2013-01-17 12:10:00,42.6,23.2,30.32,North,0,0.0,4.0,46,0.00,,,-99.99,Weather View 32 v60,2013-01-17 20:10:00,
2013-01-17 12:15:00,42.6,21.6,30.32,North,0,0.0,3.0,43,0.00,,,-99.99,Weather View 32 v60,2013-01-17 20:15:00,
2013-01-17 12:20:00,42.2,23.9,30.38,WNW,295,0.0,3.0,48,0.00,,,-99.99,Weather View 32 v60,2013-01-17 20:20:00,
2013-01-17 12:30:00,42.7,26.3,30.32,SSE,164,1.0,3.0,52,0.00,,,-99.99,Weather View 32 v60,2013-01-17 20:30:00,
2013-01-17 12:35:00,43.1,26.6,30.32,SSE,164,0.0,2.0,52,0.00,,,-99.99,Weather View 32 v60,2013-01-17 20:35:00,
2013-01-17 12:40:00,41.3,21.0,30.37,South,172,1.0,3.0,44,0.00,,,-99.99,Weather View 32 v60,2013-01-17 20:40:00,
2013-01-17 12:45:00,41.1,21.3,30.37,South,169,2.0,3.0,45,0.00,,,-99.99,Weather View 32 v60,2013-01-17 20:45:00,
2013-01-17 12:50:00,42.9,20.2,30.32,North,0,0.0,2.0,40,0.00,,,-99.99,Weather View 32 v60,2013-01-17 20:50:00,
2013-01-17 13:00:00,41.8,18.6,30.38,North,0,0.0,4.0,39,0.00,,,-99.99,Weather View 32 v60,2013-01-17 21:00:00,
2013-01-17 13:10:00,43.6,22.5,30.32,North,0,0.0,2.0,43,0.00,,,-99.99,Weather View 32 v60,2013-01-17 21:10:00,
2013-01-17 13:25:00,44.6,18.6,30.32,North,0,0.0,3.0,35,0.00,,,-99.99,Weather View 32 v60,2013-01-17 21:25:00,
2013-01-17 13:30:00,41.9,23.6,30.33,SSE,162,0.0,4.0,48,0.00,,,-99.99,Weather View 32 v60,2013-01-17 21:30:00,
2013-01-17 13:40:00,44.1,11.4,30.31,North,0,0.0,3.0,26,0.00,,,-99.99,Weather View 32 v60,2013-01-17 21:40:00,
2013-01-17 13:45:00,42.6,19.9,30.33,North,0,0.0,4.0,40,0.00,,,-99.99,Weather View 32 v60,2013-01-17 21:45:00,
2013-01-17 13:50:00,43.8,7.4,30.31,North,0,0.0,3.0,22,0.00,,,-99.99,Weather View 32 v60,2013-01-17 21:50:00,
2013-01-17 13:55:00,43.8,11.1,30.31,North,0,0.0,3.0,26,0.00,,,-99.99,Weather View 32 v60,2013-01-17 21:55:00,
2013-01-17 14:05:00,42.5,21.5,30.32,North,0,0.0,3.0,43,0.00,,,-99.99,Weather View 32 v60,2013-01-17 22:05:00,
2013-01-17 14:15:00,42.7,26.3,30.32,SSE,164,1.0,3.0,52,0.00,,,-99.99,Weather View 32 v60,2013-01-17 22:15:00,
2013-01-17 14:30:00,44.3,19.6,30.32,WSW,243,0.0,4.0,37,0.00,,,-99.99,Weather View 32 v60,2013-01-17 22:30:00,
2013-01-17 14:35:00,44.4,20.3,30.31,WSW,243,0.0,4.0,38,0.00,,,-99.99,Weather View 32 v60,2013-01-17 22:35:00,
2013-01-17 14:40:00,42.9,21.4,30.32,North,0,1.0,2.0,42,0.00,,,-99.99,Weather View 32 v60,2013-01-17 22:40:00,
2013-01-17 14:45:00,39.9,16.9,30.31,North,352,1.0,4.0,39,0.00,,,-99.99,Weather View 32 v60,2013-01-17 22:45:00,
2013-01-17 14:50:00,43.2,22.2,30.32,North,0,0.0,2.0,43,0.00,,,-99.99,Weather View 32 v60,2013-01-17 22:50:00,
2013-01-17 14:55:00,37.5,15.9,30.35,North,352,1.0,4.0,41,0.00,,,-99.99,Weather View 32 v60,2013-01-17 22:55:00,
2013-01-17 15:00:00,43.8,21.6,30.32,North,0,0.0,2.0,41,0.00,,,-99.99,Weather View 32 v60,2013-01-17 23:00:00,
2013-01-17 15:05:00,44.2,22.0,30.32,North,0,0.0,2.0,41,0.00,,,-99.99,Weather View 32 v60,2013-01-17 23:05:00,
2013-01-17 15:10:00,35.0,17.8,30.37,WNW,289,2.0,3.0,49,0.00,,,-99.99,Weather View 32 v60,2013-01-17 23:10:00,
2013-01-17 15:15:00,44.6,15.8,30.32,North,0,0.0,3.0,31,0.00,,,-99.99,Weather View 32 v60,2013-01-17 23:15:00,
2013-01-17 15:30:00,43.8,10.2,30.31,North,0,0.0,3.0,25,0.00,,,-99.99,Weather View 32 v60,2013-01-17 23:30:00,
2013-01-17 15:35:00,32.2,13.2,30.41,North,352,0.0,4.0,45,0.00,,,-99.99,Weather View 32 v60,2013-01-17 23:35:00,
2013-01-17 15:40:00,31.8,12.4,30.41,North,352,0.0,4.0,44,0.00,,,-99.99,Weather View 32 v60,2013-01-17 23:40:00,
2013-01-17 15:45:00,43.8,6.4,30.31,North,0,0.0,3.0,21,0.00,,,-99.99,Weather View 32 v60,2013-01-17 23:45:00,
2013-01-17 15:55:00,43.1,16.6,30.31,North,352,0.0,4.0,34,0.00,,,-99.99,Weather View 32 v60,2013-01-17 23:55:00,
2013-01-17 16:00:00,43.3,18.7,30.31,North,352,0.0,4.0,37,0.00,,,-99.99,Weather View 32 v60,2013-01-18 00:00:00,
2013-01-17 16:05:00,43.3,18.7,30.32,North,352,0.0,4.0,37,0.00,,,-99.99,Weather View 32 v60,2013-01-18 00:05:00,
2013-01-17 16:10:00,29.3,12.5,30.44,North,352,0.0,5.0,49,0.00,,,-99.99,Weather View 32 v60,2013-01-18 00:10:00,
2013-01-17 16:25:00,41.1,19.2,30.31,North,352,2.0,4.0,41,0.00,,,-99.99,Weather View 32 v60,2013-01-18 00:25:00,
2013-01-17 16:30:00,29.6,14.6,30.44,NW,316,1.0,6.0,53,0.00,,,-99.99,Weather View 32 v60,2013-01-18 00:30:00,
2013-01-17 16:35:00,29.5,14.5,30.44,NW,316,1.0,6.0,53,0.00,,,-99.99,Weather View 32 v60,2013-01-18 00:35:00,
2013-01-17 16:45:00,37.5,20.1,30.35,WNW,289,2.0,4.0,49,0.00,,,-99.99,Weather View 32 v60,2013-01-18 00:45:00,
2013-01-17 16:50:00,36.1,17.8,30.37,WNW,289,2.0,3.0,47,0.00,,,-99.99,Weather View 32 v60,2013-01-18 00:50:00,
2013-01-17 17:00:00,34.3,18.0,30.37,WNW,289,2.0,3.0,51,0.00,,,-99.99,Weather View 32 v60,2013-01-18 01:00:00,
2013-01-17 17:05:00,33.9,15.8,30.40,WNW,289,2.0,4.0,47,0.00,,,-99.99,Weather View 32 v60,2013-01-18 01:05:00,
2013-01-17 17:10:00,33.4,16.3,30.40,WNW,290,2.0,4.0,49,0.00,,,-99.99,Weather View 32 v60,2013-01-18 01:10:00,
2013-01-17 17:15:00,32.7,16.1,30.40,North,352,0.0,4.0,50,0.00,,,-99.99,Weather View 32 v60,2013-01-18 01:15:00,
2013-01-17 17:20:00,32.2,13.2,30.41,North,352,0.0,4.0,45,0.00,,,-99.99,Weather View 32 v60,2013-01-18 01:20:00,
2013-01-17 17:25:00,27.8,14.1,30.46,NW,316,1.0,6.0,56,0.00,,,-99.99,Weather View 32 v60,2013-01-18 01:25:00,
2013-01-17 17:35:00,30.9,12.5,30.43,North,352,0.0,4.0,46,0.00,,,-99.99,Weather View 32 v60,2013-01-18 01:35:00,
2013-01-17 17:40:00,27.5,14.7,30.46,NW,316,0.0,4.0,58,0.00,,,-99.99,Weather View 32 v60,2013-01-18 01:40:00,
2013-01-17 17:45:00,27.4,14.9,30.46,NW,316,2.0,4.0,59,0.00,,,-99.99,Weather View 32 v60,2013-01-18 01:45:00,
2013-01-17 17:55:00,27.1,15.1,30.47,NW,316,2.0,3.0,60,0.00,,,-99.99,Weather View 32 v60,2013-01-18 01:55:00,
2013-01-17 18:00:00,29.1,12.8,30.44,North,352,2.0,5.0,50,0.00,,,-99.99,Weather View 32 v60,2013-01-18 02:00:00,
2013-01-17 18:05:00,29.4,14.8,30.44,NW,322,4.0,5.0,54,0.00,,,-99.99,Weather View 32 v60,2013-01-18 02:05:00,
2013-01-17 18:10:00,29.4,14.4,30.44,NNW,335,5.0,5.0,53,0.00,,,-99.99,Weather View 32 v60,2013-01-18 02:10:00,
2013-01-17 18:20:00,25.6,12.5,30.47,North,352,0.0,3.0,57,0.00,,,-99.99,Weather View 32 v60,2013-01-18 02:20:00,
2013-01-17 18:25:00,29.2,15.0,30.44,NW,316,1.0,6.0,55,0.00,,,-99.99,Weather View 32 v60,2013-01-18 02:25:00,
2013-01-17 18:30:00,28.8,14.7,30.44,NW,316,2.0,6.0,55,0.00,,,-99.99,Weather View 32 v60,2013-01-18 02:30:00,
2013-01-17 18:35:00,28.6,14.9,30.46,NW,316,0.0,6.0,56,0.00,,,-99.99,Weather View 32 v60,2013-01-18 02:35:00,
2013-01-17 18:40:00,25.1,12.0,30.42,North,352,0.0,3.0,57,0.00,,,-99.99,Weather View 32 v60,2013-01-18 02:40:00,
2013-01-17 18:45:00,25.0,12.3,30.42,North,352,1.0,3.0,58,0.00,,,-99.99,Weather View 32 v60,2013-01-18 02:45:00,
2013-01-17 18:50:00,24.8,11.7,30.41,North,352,1.0,3.0,57,0.00,,,-99.99,Weather View 32 v60,2013-01-18 02:50:00,
2013-01-17 18:55:00,24.7,11.6,30.41,North,352,0.0,3.0,57,0.00,,,-99.99,Weather View 32 v60,2013-01-18 02:55:00,
2013-01-17 19:00:00,28.1,14.4,30.46,NW,316,0.0,6.0,56,0.00,,,-99.99,Weather View 32 v60,2013-01-18 03:00:00,
2013-01-17 19:05:00,27.9,14.6,30.46,NW,316,1.0,6.0,57,0.00,,,-99.99,Weather View 32 v60,2013-01-18 03:05:00,
2013-01-17 19:10:00,24.2,11.9,30.42,North,352,0.0,3.0,59,0.00,,,-99.99,Weather View 32 v60,2013-01-18 03:10:00,
2013-01-17 19:15:00,27.7,14.8,30.46,NW,316,0.0,4.0,58,0.00,,,-99.99,Weather View 32 v60,2013-01-18 03:15:00,
2013-01-17 19:20:00,27.6,14.7,30.46,NW,316,0.0,4.0,58,0.00,,,-99.99,Weather View 32 v60,2013-01-18 03:20:00,
2013-01-17 19:25:00,23.9,11.3,30.43,North,352,0.0,2.0,58,0.00,,,-99.99,Weather View 32 v60,2013-01-18 03:25:00,
2013-01-17 19:30:00,23.8,11.6,30.43,North,352,0.0,2.0,59,0.00,,,-99.99,Weather View 32 v60,2013-01-18 03:30:00,
2013-01-17 19:35:00,27.2,15.1,30.47,NW,316,2.0,3.0,60,0.00,,,-99.99,Weather View 32 v60,2013-01-18 03:35:00,
2013-01-17 19:40:00,23.5,11.7,30.38,North,352,0.0,2.0,60,0.00,,,-99.99,Weather View 32 v60,2013-01-18 03:40:00,
2013-01-17 19:45:00,23.3,11.5,30.38,North,352,0.0,2.0,60,0.00,,,-99.99,Weather View 32 v60,2013-01-18 03:45:00,
2013-01-17 19:50:00,23.3,11.5,30.39,North,352,0.0,3.0,60,0.00,,,-99.99,Weather View 32 v60,2013-01-18 03:50:00,
2013-01-17 19:55:00,23.2,11.0,30.39,North,352,0.0,3.0,59,0.00,,,-99.99,Weather View 32 v60,2013-01-18 03:55:00,
2013-01-17 20:00:00,25.7,12.2,30.47,North,352,0.0,3.0,56,0.00,,,-99.99,Weather View 32 v60,2013-01-18 04:00:00,
2013-01-17 20:05:00,23.0,11.2,30.39,North,352,1.0,3.0,60,0.00,,,-99.99,Weather View 32 v60,2013-01-18 04:05:00,
2013-01-17 20:10:00,22.9,11.1,30.39,North,352,1.0,3.0,60,0.00,,,-99.99,Weather View 32 v60,2013-01-18 04:10:00,
2013-01-17 20:15:00,22.9,11.5,30.39,North,352,0.0,3.0,61,0.00,,,-99.99,Weather View 32 v60,2013-01-18 04:15:00,
2013-01-17 20:20:00,22.7,11.6,30.40,North,352,0.0,3.0,62,0.00,,,-99.99,Weather View 32 v60,2013-01-18 04:20:00,
2013-01-17 20:25:00,22.5,11.4,30.40,North,352,0.0,3.0,62,0.00,,,-99.99,Weather View 32 v60,2013-01-18 04:25:00,
2013-01-17 20:30:00,22.4,11.7,30.40,North,352,0.0,3.0,63,0.00,,,-99.99,Weather View 32 v60,2013-01-18 04:30:00,
2013-01-17 20:35:00,22.2,11.2,30.37,North,352,0.0,3.0,62,0.00,,,-99.99,Weather View 32 v60,2013-01-18 04:35:00,
2013-01-17 20:40:00,24.1,14.7,30.37,NW,317,1.0,4.0,67,0.00,,,-99.99,Weather View 32 v60,2013-01-18 04:40:00,
2013-01-17 20:45:00,24.2,14.8,30.37,NW,318,2.0,4.0,67,0.00,,,-99.99,Weather View 32 v60,2013-01-18 04:45:00,
2013-01-17 20:50:00,24.1,14.7,30.35,NW,318,1.0,4.0,67,0.00,,,-99.99,Weather View 32 v60,2013-01-18 04:50:00,
2013-01-17 20:55:00,23.8,14.8,30.35,NW,318,0.0,4.0,68,0.00,,,-99.99,Weather View 32 v60,2013-01-18 04:55:00,
2013-01-17 21:00:00,23.6,14.6,30.35,NW,318,2.0,4.0,68,0.00,,,-99.99,Weather View 32 v60,2013-01-18 05:00:00,
2013-01-17 21:05:00,23.4,14.7,30.35,NW,318,2.0,4.0,69,0.00,,,-99.99,Weather View 32 v60,2013-01-18 05:05:00,
2013-01-17 21:10:00,23.4,14.7,30.35,NW,318,2.0,4.0,69,0.00,,,-99.99,Weather View 32 v60,2013-01-18 05:10:00,
2013-01-17 21:15:00,23.5,15.2,30.35,NW,318,2.0,4.0,70,0.00,,,-99.99,Weather View 32 v60,2013-01-18 05:15:00,
2013-01-17 21:20:00,23.4,15.1,30.35,NW,318,1.0,4.0,70,0.00,,,-99.99,Weather View 32 v60,2013-01-18 05:20:00,
2013-01-17 21:25:00,23.2,14.9,30.35,NW,318,3.0,4.0,70,0.00,,,-99.99,Weather View 32 v60,2013-01-18 05:25:00,
2013-01-17 21:30:00,23.1,15.1,30.35,NW,318,2.0,4.0,71,0.00,,,-99.99,Weather View 32 v60,2013-01-18 05:30:00,
2013-01-17 21:35:00,23.1,15.1,30.35,NW,318,1.0,4.0,71,0.00,,,-99.99,Weather View 32 v60,2013-01-18 05:35:00,
2013-01-17 21:40:00,23.0,15.3,30.35,NW,318,1.0,4.0,72,0.00,,,-99.99,Weather View 32 v60,2013-01-18 05:40:00,
2013-01-17 21:45:00,21.1,13.5,30.35,North,352,1.0,4.0,72,0.00,,,-99.99,Weather View 32 v60,2013-01-18 05:45:00,
2013-01-17 21:50:00,21.0,11.4,30.36,North,352,2.0,4.0,66,0.00,,,-99.99,Weather View 32 v60,2013-01-18 05:50:00,
2013-01-17 21:55:00,21.0,11.4,30.36,North,352,2.0,4.0,66,0.00,,,-99.99,Weather View 32 v60,2013-01-18 05:55:00,
2013-01-17 22:00:00,21.0,11.4,30.36,North,352,1.0,4.0,66,0.00,,,-99.99,Weather View 32 v60,2013-01-18 06:00:00,
2013-01-17 22:05:00,21.0,11.4,30.37,North,352,1.0,4.0,66,0.00,,,-99.99,Weather View 32 v60,2013-01-18 06:05:00,
2013-01-17 22:10:00,20.8,11.2,30.37,North,352,1.0,3.0,66,0.00,,,-99.99,Weather View 32 v60,2013-01-18 06:10:00,
2013-01-17 22:15:00,20.8,11.6,30.37,North,352,1.0,3.0,67,0.00,,,-99.99,Weather View 32 v60,2013-01-18 06:15:00,
2013-01-17 22:20:00,20.6,11.4,30.37,North,352,0.0,3.0,67,0.00,,,-99.99,Weather View 32 v60,2013-01-18 06:20:00,
2013-01-17 22:25:00,20.5,11.3,30.37,North,352,1.0,3.0,67,0.00,,,-99.99,Weather View 32 v60,2013-01-18 06:25:00,
2013-01-17 22:30:00,22.6,14.6,30.37,NW,319,2.0,3.0,71,0.00,,,-99.99,Weather View 32 v60,2013-01-18 06:30:00,
2013-01-17 22:35:00,22.6,14.6,30.36,NW,326,3.0,5.0,71,0.00,,,-99.99,Weather View 32 v60,2013-01-18 06:35:00,
2013-01-17 22:40:00,22.5,14.5,30.36,NW,326,1.0,5.0,71,0.00,,,-99.99,Weather View 32 v60,2013-01-18 06:40:00,
2013-01-17 22:45:00,22.6,14.3,30.36,NNW,331,4.0,5.0,70,0.00,,,-99.99,Weather View 32 v60,2013-01-18 06:45:00,
2013-01-17 22:50:00,20.8,10.9,30.35,North,352,3.0,5.0,65,0.00,,,-99.99,Weather View 32 v60,2013-01-18 06:50:00,
2013-01-17 22:55:00,21.0,11.1,30.35,North,352,2.0,5.0,65,0.00,,,-99.99,Weather View 32 v60,2013-01-18 06:55:00,
2013-01-17 23:00:00,20.8,11.2,30.35,North,352,2.0,5.0,66,0.00,,,-99.99,Weather View 32 v60,2013-01-18 07:00:00,
2013-01-17 23:05:00,20.6,11.0,30.36,North,352,0.0,5.0,66,0.00,,,-99.99,Weather View 32 v60,2013-01-18 07:05:00,
2013-01-17 23:10:00,20.5,10.9,30.36,North,352,1.0,5.0,66,0.00,,,-99.99,Weather View 32 v60,2013-01-18 07:10:00,
2013-01-17 23:15:00,20.5,10.9,30.36,North,352,2.0,5.0,66,0.00,,,-99.99,Weather View 32 v60,2013-01-18 07:15:00,
2013-01-17 23:20:00,20.5,10.9,30.36,North,352,0.0,5.0,66,0.00,,,-99.99,Weather View 32 v60,2013-01-18 07:20:00,
2013-01-17 23:25:00,22.6,14.3,30.36,NNW,338,3.0,5.0,70,0.00,,,-99.99,Weather View 32 v60,2013-01-18 07:25:00,
2013-01-17 23:30:00,22.9,14.6,30.36,NNW,338,3.0,5.0,70,0.00,,,-99.99,Weather View 32 v60,2013-01-18 07:30:00,
2013-01-17 23:35:00,22.6,14.6,30.33,NNW,338,4.0,5.0,71,0.00,,,-99.99,Weather View 32 v60,2013-01-18 07:35:00,
2013-01-17 23:40:00,22.4,14.7,30.33,NNW,338,4.0,5.0,72,0.00,,,-99.99,Weather View 32 v60,2013-01-18 07:40:00,
2013-01-17 23:45:00,22.3,14.6,30.33,NNW,338,2.0,5.0,72,0.00,,,-99.99,Weather View 32 v60,2013-01-18 07:45:00,
2013-01-17 23:50:00,22.2,14.6,30.34,NNW,335,4.0,4.0,72,0.00,,,-99.99,Weather View 32 v60,2013-01-18 07:50:00,
2013-01-17 23:55:00,20.3,12.7,30.34,North,352,2.0,4.0,72,0.00,,,-99.99,Weather View 32 v60,2013-01-18 07:55:00,